Voltar ao catálogo

STARLINK-34832

AtivoComunicaçõesVLEO
NORAD 65475·PAYLOAD·🇺🇸 United States

Lançado Sep 3, 2025 de Cape Canaveral Space Force Station

Loading…

Próximas Passagens (próximas 24 horas)

TLE

AtualizadoSource: CelesTrak SupGP

Época: Sep 15, 2026, 03:40 UTC

1 65475C 25195T   26258.15326389 -.00017329  00000+0 -51214-3 0  2586
2 65475  53.1583  94.3547 0001142  82.9391 320.0304 15.34389680    16

Acompanhe STARLINK-34832 em tempo real com AllMySat

Download on the App Store